Other Public Products
Issued by NWS Grand Forks, ND

Home | Current Version | Previous Version | Text Only | Print | Product List | Glossary Off
Versions: 1 2 3 4 5 6 7 8 9 10 11 12 13 14 15 16 17 18 19 20 21 22 23 24 25 26 27 28 29 30 31 32 33 34 35 36 37 38 39 40 41 42 43 44 45 46 47 48 49 50

000
FPUS83 KFGF 230110
OPUFGF
PRAIRIE TO PINES WEATHER ROUNDUP
NATIONAL WEATHER SERVICE EASTERN NORTH DAKOTA/GRAND FORKS ND
800 PM CDT FRI AUG 22 2014

 **SATELLITE DATA USED TO AUGMENT SKY COVER AT AUTOMATED STATIONS**
 *****  WEATHER ACROSS EASTERN NORTH DAKOTA  *****

CITY           SKY/WX    TMP DP  RH WIND       PRES   REMARKS
GRAND FORKS    CLOUDY    69  63  81 N12       30.05R
GRAND FORKS AF CLOUDY    69  65  88 NE8       30.07R
GRAND CITY NWS   N/A     63 N/A N/A VRB5        N/A
BUXTON         NOT AVBL
DEVILS LAKE    CLOUDY    66  57  72 NE13      30.09R
FARGO          CLOUDY    70  66  87 N9        30.02S
WAHPETON ARPT  PTCLDY    70  63  78 N12       30.02S
$$

 *****  WEATHER ACROSS CENTRAL AND WESTERN NORTH DAKOTA  *****

CITY           SKY/WX    TMP DP  RH WIND       PRES   REMARKS
JAMESTOWN      CLOUDY    69  64  84 NE10      30.05S
BISMARCK       CLOUDY    68  65  90 NE10      30.05S
MINOT          CLOUDY    64  59  83 N7        30.11R
MINOT AFB      CLOUDY    65  60  83 NE10      30.11R
GARRISON         N/A     65  60  84 NE8       30.10R
WILLISTON      CLOUDY    66  54  65 E13       30.12R
DICKINSON      CLOUDY    66  61  84 NE14      30.07R
HETTINGER      CLOUDY    70  61  73 E7        30.05S
$$

 *****  OTHER OBSERVATIONS NORTHEAST NORTH DAKOTA  *****

CITY           SKY/WX    TMP DP  RH WIND       PRES   REMARKS
WALHALLA         N/A     66  63  88 N14G21    30.10S
LANGDON        CLOUDY    64  57  77 N9        30.12R
CAVALIER       MOCLDY    66  59  77 N10       30.09R
GRAFTON        MOCLDY    66  61  82 N14       30.07R
CANDO          CLOUDY    64  57  77 NE9       30.12S
FORT TOTTEN      N/A     66  60  82 NE5       29.95S
ROLLA          CLOUDY    61  61 100 NE10      30.15R
RUGBY          CLOUDY    64  59  82 NE9       30.12R
 ***** THE ABOVE OBSERVATIONS ARE NON NWS ARE NOT QUALITY
        CONTROLLED AND MAY MIS-REPORT RAIN FOR SNOW...
$$

 *****  OTHER OBSERVATIONS SOUTHEAST NORTH DAKOTA *****

CITY           SKY/WX    TMP DP  RH WIND       PRES   REMARKS
COOPERSTOWN    NOT AVBL
VALLEY CITY    CLOUDY    68  68 100 NE9       30.06S
OAKES            N/A     72  70  94 NE9       30.03R
GWINNER        PTCLDY    72  68  88 NE10      30.04S
SHEYENNE NWR     N/A     71  65  82 N7        29.95S
BUFFALO        NOT AVBL
WYNDMERE       NOT AVBL
 ***** THE ABOVE OBSERVATIONS ARE NON NWS ARE NOT QUALITY
       CONTROLLED AND MAY MIS-REPORT RAIN FOR SNOW...
$$

  *****  WEATHER ACROSS NORTHERN MINNESOTA  *****

CITY           SKY/WX    TMP DP  RH WIND       PRES   REMARKS
FLAG ISLAND    MOCLDY    72  64  78 CALM      30.04R
WARROAD        MOCLDY    70  66  88 N3        30.05S
ROSEAU         PTCLDY    70  64  83 N8        30.05R
HALLOCK        CLOUDY    68  63  83 N13       30.06S
THF RVR FALLS  CLOUDY    70  66  88 N9        30.04R
HALSTAD          N/A     68  66  93 N9          N/A
FOSSTON        CLOUDY    70  66  88 NW5       30.03S
BAUDETTE       MOCLDY    70  66  87 N6        30.04R
WASKISH        CLOUDY    72  68  88 CALM      30.03R
CROOKSTON      CLOUDY    66  66 100 N12       30.04S
$$
  *****  WEATHER ACROSS CENTRAL AND WEST MINNESOTA  *****

CITY           SKY/WX    TMP DP  RH WIND       PRES   REMARKS
BEMIDJI        PTCLDY    69  67  96 CALM      30.02S
PARK RAPIDS    PTCLDY    72  69  90 NW7       30.02S
WADENA         MOCLDY    73  68  83 CALM      30.01S
DETROIT LAKES  MOCLDY    70  66  88 NW8       30.05S
MOORHEAD       MOCLDY    70  70 100 N8        30.03S
FERGUS FALLS   PTCLDY    73  64  73 N8        30.01S
ELBOW LAKE     FAIR      73  68  84 N8        30.01S
MORRIS MN      CLOUDY    75  70  83 N8        30.00R
STAPLES        CLOUDY    73  66  78 CALM      30.01R
WHEATON        MOCLDY    72  66  83 N7        30.02S
$$
  *****  WEATHER ELSEWHERE ACROSS MINNESOTA  *****

CITY           SKY/WX    TMP DP  RH WIND       PRES   REMARKS
DULUTH         FOG       63  60  90 E7        30.04S VSB 1
INTRNTL FALLS  PTCLDY    69  65  86 NE3       30.03R
ELY            CLOUDY    70  64  83 E6        30.04F
CLOQUET        CLOUDY    63  61  94 E7        30.04S
BRAINERD       MOCLDY    72  68  87 CALM      30.01R
HIBBING        CLOUDY    72  66  81 CALM      30.03R
ALEXANDRIA     MOCLDY    76  69  79 N7        30.03R
SAINT CLOUD    CLEAR     75  68  78 CALM      30.00R
MINNEAPOLIS    MOCLDY    75  67  76 VRB7      29.99R
$$

  *****  WEATHER ACROSS SOUTH DAKOTA  *****

CITY           SKY/WX    TMP DP  RH WIND       PRES   REMARKS
SIOUX FALLS    MOCLDY    80  69  69 E9        29.96R
BROOKINGS      NOT AVBL
WATERTOWN      MOCLDY    72  69  90 NE7       29.98F
HURON          MOCLDY    76  70  82 NE8       29.94F
SISSETON         N/A     74  70  87 NE6       30.00S
ABERDEEN       PTCLDY    74  68  81 NE8       30.00S
MITCHELL       PTCLDY    79  71  76 E5        29.94F
PIERRE         MOCLDY    74  65  73 NE14      29.94F
MOBRIDGE       PTCLDY    72  64  76 N9        29.98F
RAPID CITY     MOCLDY    73  63  70 CALM      30.00F
$$

  *****  SOME WEATHER IN NEARBY STATES *****

CITY           SKY/WX    TMP DP  RH WIND       PRES   REMARKS
GLASGOW MT     CLOUDY    64  54  69 NE17      30.09S
GREAT FALLS MT CLOUDY    57  52  83 N12       30.12S
CHEYENNE WY    LGT RAIN  60  57  89 S15G25    30.08F
SCOTTSBLUFF NE CLOUDY    66  63  90 E12       30.03S
OMAHA NE       CLOUDY    76  74  93 N6        29.92R
DES MOINES IA  CLOUDY    82  74  76 CALM      29.93R
DAVENPORT IA   PTCLDY    80  73  79 SW5       29.95R
CHICAGO IL     MOCLDY    82  71  69 N5        29.95R
EAU CLAIRE WI  CLEAR     76  71  85 N8        29.97R
LA CROSSE WI   PTCLDY    81  73  76 N7        29.93R
$$

  *****  SOME NATIONAL WEATHER *****

CITY           SKY/WX    TMP DP  RH WIND       PRES   REMARKS
LA GUARDIA NY  CLOUDY    71  59  65 E8        30.04R
RALEIGH NC     MOCLDY    77  73  87 CALM      29.96R
ATLANTA GA     PTCLDY    87  70  56 W3        30.02F HX  92
NEW ORLEANS LA PTCLDY    86  67  52 W5        30.01S
OKLAHOMA CITY  CLEAR     92  61  35 SE14      29.90S HX  92
ALBUQUERQUE NM LGT RAIN  68  55  63 W28       30.19R
SALT LAKE CITY RAIN      61  56  83 N15       30.00R
LOS ANGELES CA MOSUNNY   72  63  73 W14       29.93S
BOISE ID       SUNNY     80  32  17 NW10      29.86R
SEATTLE WA     MOSUNNY   74  51  44 NW8       30.07S
$$

*** WEATHER ACROSS MANITOBA...SASKATCHEWAN AND ONTARIO ***
                ***ONTARIO***

CITY           SKY/WX    TMP DP  RH WIND       PRES   REMARKS
GERALDTON      MOCLDY    68  64  88 CALM      30.05S
THUNDER BAY    MOCLDY    66  63  88 NE5       30.05R
SIOUX LOOKOUT  MOCLDY    70  64  83 N3        30.05S
TORONTO        MOCLDY    70  64  83 SE5       30.02R
BIG TROUT LK   CLOUDY    55  50  82 N9        30.13R
PICKLE LAKE    MOCLDY    72  59  64 SW2       30.06R
DRYDEN         CLOUDY    70  61  73 N2        30.06R
KENORA         CLOUDY    70  63  78 NW5       30.07R
$$
                *** MANITOBA***

CITY           SKY/WX    TMP DP  RH WIND       PRES   REMARKS
BRANDON        CLOUDY    61  55  82 NE8       30.17R
DAUPHIN        LGT RAIN  59  55  88 NE15      30.21R FOG
ISLAND LAKE    LGT RAIN  52  50  93 NE8       30.24R FOG
PILOT MOUND      N/A     61  55  82 N10         N/A
THE PAS        PTCLDY    61  50  67 NE10      30.28R
THOMPSON       MOCLDY    57  48  72 N9        30.31R
WINNIPEG       CLOUDY    61  59  94 N8        30.11R
LYNN LAKE      CLOUDY    52  45  76 MISG      30.38R
CHURCHILL      CLOUDY    48  43  81 N13       30.38R
GILLAM         MOCLDY    52  45  76 N17G23    30.34R
$$
                ***SASKATCHEWAN***

CITY           SKY/WX    TMP DP  RH WIND       PRES   REMARKS
ESTEVAN        CLOUDY    64  54  68 NE13      30.16R
KINDERSLEY     CLOUDY    55  43  62 N15       30.29R
LLOYDMINSTER   PTSUNNY   55  39  54 N7        30.34R
PRINCE ALBERT  PTSUNNY   61  52  72 NE5       30.28R
REGINA         MOCLDY    63  52  67 E12G20    30.19S


USA.gov is the U.S. government's official web portal to all federal, state and local government web resources and services.